Location: *
(18.5200°S, 46.4500°E)
Time: 07:51:55
(UTC+00:00)

Cosmos 967 Rocket - Pass Details

Date: 19 July 2019
Orbit: 949 x 989 km, 65.8° (Epoch: 25 August)

Event Time Altitude Azimuth Distance (km) Brightness Sun altitude
Rises 15:34:56 0° 340° (NNW) 3,680 8.1 -14.2°
Reaches altitude 10° 15:37:29 10° 340° (NNW) 2,737 7.4 -14.8°
Maximum altitude 15:43:56 85° 69° (ENE) 997 4.5 -16.2°
Enters shadow 15:50:04 12° 156° (SSE) 2,630 6.4 -17.6°
